Simultaneous Nadir Overpasses (SNOs) Predictions

Prediction of SNOs between METOP-A and NOAA-19 Satellite Orbit:

Table of predicted SNOs for the next 14.0 days since TLE Epoch: 4/20/2012
Index Date (METOP-A) Time (METOP-A) METOP-A Lat,Lon Date (NOAA-19) Time (NOAA-19) NOAA-19 Lat,Lon Distance(km) Time Diff (sec)
1 04/27/2012 01:05:29 73.11, 156.29 04/27/2012 01:04:15 73.13, 156.23 3.17 74
2 04/27/2012 01:56:11 -73.09, -36.43 04/27/2012 01:55:10 -73.07, -36.37 2.88 61
3 04/27/2012 02:46:52 73.04, 130.80 04/27/2012 02:46:19 73.06, 130.85 3.13 33
4 04/27/2012 03:37:33 -73.07, -61.81 04/27/2012 03:37:15 -73.05, -61.85 2.15 18
5 04/27/2012 04:28:14 73.02, 105.42 04/27/2012 04:28:23 73.00, 105.48 3.26 9
6 04/27/2012 05:18:56 -73.00, -87.30 04/27/2012 05:19:19 -72.98, -87.23 2.90 23
7 04/27/2012 06:09:36
